Total_Precipitation_Accumulation
0.05 0.15 0.35 0.57 1.01 1.35 1.20 0.74 0.48 0.28 0.32 0.41 0.52 0.61 0.58 0.65 0.89 1.38 1.09 0.64 0.38 0.42 0.40 0.47 0.63 0.52 0.50 0.52 0.58 0.67 0.80 0.87 0.95 0.88 0.96 1.10 1.29 1.42 1.54 1.61 1.66 1.83 2.07 2.19 2.08 1.97 1.99 1.96 1.94
0.09 0.29 0.50 0.78 1.16 1.15 0.95 0.58 0.32 0.25 0.27 0.38 0.45 0.42 0.40 0.37 0.34 0.41 0.59 0.51 0.39 0.35 0.24 0.26 0.44 0.47 0.43 0.48 0.54 0.63 0.70 0.77 0.83 0.83 0.85 0.99 1.22 1.46 1.66 1.75 1.73 1.74 1.85 2.05 2.00 2.06 2.05 1.99 1.86
0.17 0.32 0.54 0.83 0.89 0.70 0.58 0.36 0.28 0.29 0.35 0.44 0.43 0.37 0.38 0.48 0.30 0.28 0.40 0.37 0.31 0.24 0.18 0.25 0.36 0.38 0.36 0.40 0.52 0.64 0.73 0.77 0.79 0.78 0.84 0.94 1.20 1.49 1.63 1.67 1.69 1.63 1.68 1.84 1.94 1.94 1.76 1.77 1.75
0.20 0.31 0.46 0.57 0.51 0.39 0.32 0.27 0.24 0.25 0.39 0.55 0.59 0.44 0.35 0.34 0.25 0.22 0.25 0.23 0.22 0.21 0.16 0.23 0.34 0.33 0.33 0.40 0.51 0.62 0.67 0.75 0.81 0.81 0.86 1.01 1.23 1.44 1.56 1.48 1.45 1.51 1.50 1.52 1.64 1.66 1.53 1.62 1.78
0.20 0.30 0.53 0.46 0.35 0.29 0.26 0.22 0.22 0.24 0.34 0.57 0.66 0.62 0.56 0.48 0.32 0.27 0.29 0.22 0.17 0.18 0.19 0.23 0.34 0.35 0.37 0.41 0.48 0.62 0.69 0.75 0.83 0.87 0.94 1.04 1.25 1.46 1.52 1.43 1.52 1.48 1.41 1.39 1.40 1.50 1.62 1.80 1.87
0.21 0.30 0.35 0.35 0.24 0.20 0.19 0.19 0.25 0.29 0.45 0.56 0.57 0.65 0.74 0.64 0.48 0.33 0.34 0.26 0.22 0.18 0.19 0.25 0.34 0.36 0.39 0.45 0.52 0.60 0.68 0.72 0.79 0.86 0.89 0.95 1.15 1.35 1.35 1.38 1.44 1.30 1.30 1.32 1.21 1.26 1.43 1.57 1.64
0.16 0.23 0.25 0.29 0.23 0.18 0.14 0.16 0.29 0.35 0.62 0.76 0.79 0.74 0.87 0.83 0.56 0.40 0.40 0.33 0.33 0.29 0.32 0.34 0.35 0.36 0.44 0.51 0.59 0.62 0.67 0.74 0.78 0.82 0.86 0.96 0.98 1.11 1.19 1.23 1.25 1.21 1.23 1.12 1.03 1.13 1.19 1.22 1.29
0.09 0.14 0.19 0.22 0.17 0.13 0.12 0.15 0.25 0.34 0.53 0.60 0.74 0.87 1.05 0.87 0.61 0.53 0.52 0.52 0.53 0.54 0.56 0.51 0.45 0.46 0.47 0.51 0.69 0.80 0.80 0.78 0.78 0.83 0.91 1.03 1.05 1.04 1.05 1.00 1.08 1.11 1.06 1.03 1.06 1.10 1.12 1.17 1.22
0.08 0.11 0.14 0.14 0.09 0.08 0.08 0.14 0.20 0.35 0.45 0.48 0.61 0.75 0.92 0.69 0.63 0.73 0.85 0.88 0.87 0.84 0.89 0.77 0.72 0.62 0.64 0.66 0.72 0.86 0.86 0.87 0.96 0.99 1.05 1.29 1.57 1.39 1.38 1.16 1.29 1.29 1.23 1.22 1.27 1.31 1.34 1.32 1.36
0.07 0.08 0.07 0.06 0.05 0.05 0.08 0.13 0.20 0.35 0.72 0.93 1.05 0.95 0.80 0.77 0.81 0.89 1.01 1.07 1.10 1.12 0.96 0.95 0.98 0.83 0.86 0.87 1.01 1.35 1.25 1.24 1.38 1.41 1.37 1.70 1.89 1.84 1.43 1.50 1.78 1.82 1.82 1.73 1.75 1.89 1.85 1.53 1.32
0.04 0.05 0.04 0.03 0.02 0.03 0.06 0.11 0.14 0.30 0.83 1.39 1.50 1.16 0.82 0.92 1.06 1.20 1.26 1.30 1.22 1.27 1.14 1.25 1.24 1.16 1.20 1.46 1.30 1.45 1.69 1.81 1.79 1.77 1.95 2.14 1.86 1.70 1.61 1.78 2.06 2.11 2.09 2.01 2.12 2.35 2.15 2.06 2.05
0.02 0.02 0.03 0.02 0.02 0.03 0.05 0.12 0.17 0.32 0.77 1.20 1.22 0.97 0.81 1.02 1.19 1.47 1.61 1.73 1.80 1.83 1.82 1.76 1.77 1.78 1.79 1.66 1.65 1.56 1.58 1.70 1.87 1.97 1.98 2.18 2.28 2.26 2.10 2.17 2.15 2.14 2.24 2.49 2.41 2.54 2.65 2.65 2.41
0.02 0.02 0.02 0.02 0.02 0.04 0.07 0.12 0.23 0.43 0.53 0.60 0.71 0.74 0.85 1.14 1.45 1.81 2.02 2.21 2.34 2.62 2.73 2.66 2.50 2.32 2.40 2.40 2.25 1.85 1.92 1.84 1.82 2.12 2.18 2.25 2.43 2.54 2.47 2.36 2.38 2.06 2.10 2.42 2.73 2.60 2.73 2.88 2.69
0.02 0.02 0.02 0.03 0.03 0.04 0.07 0.13 0.27 0.52 0.53 0.54 0.64 0.69 0.82 1.23 1.77 2.26 2.36 2.48 2.77 3.41 3.84 3.58 3.32 3.00 2.92 2.93 2.82 2.68 2.32 2.20 1.99 2.16 2.24 2.43 2.64 2.75 2.70 2.50 2.45 2.11 2.02 2.24 2.53 2.56 2.79 2.81 2.80
0.04 0.04 0.06 0.06 0.05 0.11 0.13 0.24 0.42 0.63 0.58 0.59 0.71 0.75 0.83 1.21 1.68 2.42 2.79 3.03 3.31 4.03 4.57 4.30 4.13 4.07 3.83 3.72 3.34 2.87 2.54 2.31 2.43 2.54 2.61 2.74 2.83 2.93 2.86 2.71 2.44 2.28 2.32 2.38 2.39 2.51 2.94 2.77 2.64
0.06 0.09 0.18 0.15 0.10 0.14 0.21 0.55 0.65 0.71 0.64 0.69 0.91 0.85 0.85 1.16 1.66 2.38 2.99 3.49 3.83 4.19 4.59 4.92 4.61 4.96 4.87 4.60 4.11 3.54 3.25 3.12 2.95 2.87 2.94 2.79 2.82 2.83 2.96 2.64 2.29 2.41 2.54 2.63 2.63 2.66 2.87 2.89 2.98
0.09 0.14 0.24 0.25 0.16 0.15 0.24 0.65 0.75 0.60 0.63 0.79 0.97 0.97 1.01 1.25 1.59 2.07 2.71 3.29 3.87 4.46 4.96 5.45 5.66 5.74 5.34 4.95 4.53 4.20 3.97 3.70 3.24 2.78 2.61 2.49 2.33 2.18 2.28 2.09 1.98 2.05 2.17 2.14 2.02 2.36 2.60 2.75 2.91
0.08 0.12 0.19 0.35 0.27 0.18 0.24 0.52 0.68 0.63 0.63 0.83 1.05 1.02 1.07 1.27 1.62 2.01 2.56 3.04 3.72 4.58 5.42 5.84 5.96 5.58 5.17 4.80 4.33 4.12 3.81 3.45 3.07 2.62 2.31 2.11 2.03 1.79 1.86 1.67 1.61 1.81 1.99 2.04 2.18 2.36 2.35 2.29 2.39
0.08 0.11 0.18 0.28 0.23 0.20 0.32 0.53 0.65 0.69 0.76 0.91 1.08 1.06 1.11 1.21 1.57 2.02 2.53 3.04 3.72 4.65 5.59 5.94 5.69 5.12 4.68 4.26 3.77 3.38 3.05 2.79 2.67 2.37 2.05 1.96 1.88 1.82 1.99 1.72 1.86 1.88 1.94 1.97 2.00 2.11 2.05 1.81 1.97
0.10 0.14 0.19 0.26 0.20 0.22 0.35 0.57 0.77 0.87 0.96 0.92 0.98 1.08 1.03 1.21 1.63 2.12 2.70 3.12 3.47 4.01 4.76 5.06 4.72 4.09 3.51 3.23 3.07 2.88 2.77 2.45 2.27 2.17 2.06 1.79 1.77 1.75 1.75 1.83 1.58 1.60 1.74 1.69 1.75 2.05 2.00 1.73 1.84
0.10 0.13 0.18 0.23 0.16 0.23 0.38 0.76 1.04 1.10 0.90 0.72 0.65 0.78 0.79 0.95 1.47 2.19 2.71 3.00 3.26 3.46 3.47 3.58 3.48 2.99 2.64 2.54 2.52 2.48 2.55 2.37 2.14 2.01 1.86 1.61 1.53 1.45 1.50 1.53 1.53 1.63 1.55 1.63 1.74 1.84 1.94 1.83 1.70
0.10 0.08 0.08 0.11 0.15 0.35 0.45 1.07 1.32 1.13 0.98 0.77 0.61 0.63 0.64 0.85 1.32 2.07 2.35 2.46 2.49 2.58 2.39 2.40 2.48 2.32 2.26 2.16 2.18 2.07 1.92 1.86 1.76 1.76 1.70 1.58 1.47 1.39 1.30 1.35 1.36 1.48 1.48 1.71 1.53 1.61 1.81 1.84 1.64
0.08 0.06 0.06 0.10 0.17 0.35 0.56 0.95 1.33 1.20 1.11 0.81 0.61 0.58 0.67 0.75 1.02 1.36 1.42 1.54 1.61 1.69 1.73 1.90 2.14 2.16 2.07 2.02 2.14 2.15 1.88 1.71 1.61 1.62 1.70 1.59 1.48 1.38 1.26 1.30 1.38 1.44 1.49 1.53 1.56 1.77 1.74 1.67 1.64
0.06 0.08 0.14 0.27 0.42 0.75 0.76 0.88 1.32 1.17 0.92 0.65 0.54 0.55 0.50 0.52 0.71 0.90 0.96 1.00 1.05 1.12 1.25 1.45 1.83 2.01 1.91 1.87 1.92 1.90 1.84 1.76 1.63 1.52 1.53 1.52 1.47 1.45 1.44 1.35 1.43 1.43 1.44 1.45 1.47 1.61 1.64 1.66 1.72
0.07 0.11 0.33 0.73 1.15 1.25 0.77 0.87 1.20 0.81 0.56 0.42 0.36 0.39 0.42 0.55 0.63 0.74 0.88 0.93 0.84 0.82 0.95 1.15 1.39 1.52 1.54 1.60 1.72 1.80 1.87 1.80 1.64 1.55 1.45 1.44 1.36 1.37 1.48 1.44 1.43 1.48 1.50 1.42 1.46 1.51 1.49 1.57 1.70
0.10 0.11 0.24 0.44 0.58 0.72 0.72 1.15 1.25 0.69 0.45 0.34 0.31 0.32 0.44 0.51 0.48 0.51 0.60 0.62 0.59 0.66 0.75 0.92 1.06 1.14 1.23 1.35 1.53 1.66 1.69 1.68 1.63 1.68 1.54 1.43 1.31 1.30 1.39 1.47 1.43 1.38 1.33 1.33 1.59 1.47 1.40 1.51 1.58
0.08 0.09 0.11 0.13 0.19 0.48 0.82 1.08 0.96 0.62 0.43 0.33 0.32 0.31 0.40 0.41 0.35 0.33 0.35 0.37 0.42 0.58 0.69 0.76 0.86 0.97 1.07 1.18 1.39 1.53 1.56 1.53 1.55 1.62 1.54 1.38 1.37 1.31 1.37 1.31 1.38 1.37 1.30 1.35 1.53 1.52 1.48 1.52 1.50
0.08 0.08 0.08 0.09 0.19 0.43 0.77 1.13 1.13 0.81 0.62 0.52 0.39 0.31 0.35 0.34 0.29 0.30 0.28 0.26 0.27 0.34 0.50 0.64 0.73 0.89 1.05 1.12 1.15 1.22 1.40 1.37 1.34 1.29 1.27 1.34 1.35 1.32 1.38 1.39 1.28 1.28 1.31 1.40 1.53 1.51 1.48 1.58 1.66
0.08 0.07 0.08 0.08 0.10 0.24 0.60 0.92 0.76 0.62 0.50 0.52 0.46 0.40 0.36 0.34 0.32 0.27 0.29 0.28 0.26 0.30 0.40 0.54 0.63 0.76 0.87 0.90 0.92 1.05 1.16 1.15 1.12 1.11 1.08 1.18 1.20 1.22 1.25 1.27 1.27 1.26 1.34 1.55 1.79 1.74 1.69 1.71 1.77
0.08 0.07 0.09 0.11 0.12 0.15 0.32 0.52 0.40 0.42 0.40 0.46 0.48 0.49 0.49 0.48 0.45 0.39 0.38 0.35 0.37 0.35 0.37 0.48 0.50 0.55 0.62 0.69 0.76 0.86 0.98 0.98 0.98 1.02 1.14 1.21 1.18 1.11 1.03 1.06 1.13 1.13 1.25 1.50 1.82 1.95 1.95 1.97 1.92